[[{"header":{"parameterUnit":"m.s-1","parameterCategory":1,"la1":30.2991,"la2":30.254,"lo1":-89.0895,"lo2":-89.0444,"dy":0.0017,"dx":0.0017,"nx":28,"ny":28,"refTime":"2025-03-20T21:00:00:Z","depth":0,"parameterNumber":2,"parameterNumberName":"U-component_of_WINDS"},"data":[0,0,0,0,0,0,0,0,0,0,0,0,0,0,0,0,0,0,0,0,0,0,0,0,0,0,0,0,0,0,0,0,0,0,0,0,0,0,0,0,0,0,0,0,0,0,0,0,0,0,0,0,0,0,0,0,0,0,-0.6672,-0.6672,0,-0.6697,-0.6697,-0.6697,-0.6635,-0.6633,-0.6631,-0.663,-0.6659,-0.6662,-0.6664,0,0,0,0,0,0,0,0,0,0,0,0,0,-0.6574,-0.6576,-0.6672,-0.6672,-0.6673,-0.6697,-0.6697,-0.6697,-0.6636,-0.6633,-0.6631,-0.6629,-0.6658,-0.6661,-0.6665,0,0,0,0,0,0,0,0,0,0,0,0,0,-0.6609,-0.6576,-0.6672,-0.6645,-0.6642,-0.6697,-0.6697,-0.6697,-0.6636,-0.6633,-0.663,-0.6628,-0.6657,-0.6661,-0.6665,-0.6748,0,0,-0.6677,-0.6679,0,0,0,0,0,0,0,0,-0.6607,-0.6613,-0.6648,-0.6647,-0.6644,-0.666,-0.6673,-0.6715,-0.6637,-0.6639,-0.663,-0.6626,-0.6662,-0.6665,-0.6677,-0.675,-0.6751,-0.6677,-0.668,-0.6681,-0.6683,0,0,0,0,0,0,0,-0.6605,-0.6612,-0.6682,-0.6649,-0.6647,-0.6632,-0.6634,-0.6681,-0.6667,-0.6638,-0.6634,-0.6637,-0.666,-0.6673,-0.6677,-0.6751,-0.6677,-0.6681,-0.6683,-0.6685,-0.689,-0.6893,0,0,0,0,0,0,-0.6606,-0.661,-0.6681,-0.6683,-0.6618,-0.6636,-0.6638,-0.6658,-0.6666,-0.6664,-0.664,-0.6634,-0.6668,-0.6672,-0.6678,-0.6774,-0.6681,-0.6685,-0.6687,-0.6887,-0.6891,-0.6894,0,0,0,0,0,0,-0.6604,-0.6613,-0.668,-0.6645,-0.6653,-0.6641,-0.6664,-0.666,-0.6672,-0.6667,-0.6665,-0.6655,-0.6666,-0.6672,-0.673,-0.6774,-0.6687,-0.669,-0.6884,-0.6888,-0.6893,-0.6967,0,0,0,0,0,0,-0.6601,-0.6612,-0.6644,-0.6646,-0.6655,-0.6732,-0.6666,-0.6663,-0.6679,-0.6672,-0.6681,-0.668,-0.6664,-0.6725,-0.6734,-0.6778,-0.6694,-0.688,-0.6886,-0.6891,-0.6961,-0.6974,-0.6985,0,0,0,0,0,-0.6598,-0.6665,-0.6646,-0.6655,-0.6693,-0.6735,-0.674,-0.6719,-0.6683,-0.6714,-0.671,-0.6679,-0.6767,-0.6731,-0.6741,-0.6787,-0.6877,-0.6884,-0.6891,-0.6956,-0.6972,-0.6985,0,0,0,0,0,0,-0.6671,-0.6665,-0.6643,-0.6714,-0.6725,-0.6724,-0.6763,-0.6737,-0.676,-0.6753,-0.6727,-0.673,-0.6792,-0.6795,-0.6755,-0.6866,-0.6816,-0.6825,-0.6862,-0.6877,-0.6889,-0.6887,-0.6697,0,0,0,0,0,-0.6695,-0.6728,-0.6721,-0.6784,-0.679,-0.6776,-0.6793,-0.6776,-0.6787,-0.6792,-0.6792,-0.6806,-0.6835,-0.6856,-0.6884,-0.6961,-0.6961,-0.6997,-0.7009,-0.7019,-0.7027,-0.7066,-0.7081,-0.6917,-0.6917,-0.6917,0,0,-0.6746,-0.6746,-0.6769,-0.6799,-0.6805,-0.684,-0.6781,-0.6821,-0.6846,-0.6799,-0.6852,-0.6853,-0.6866,-0.6932,-0.6962,-0.6937,-0.7072,-0.7028,-0.7036,-0.7039,-0.7075,-0.709,-0.7104,-0.6922,-0.6921,-0.692,0,0,-0.6855,-0.686,-0.6911,-0.6918,-0.6927,-0.6916,-0.6929,-0.6931,-0.6929,-0.6982,-0.6946,-0.6976,-0.7029,-0.7039,-0.7051,-0.716,-0.7132,-0.717,-0.7233,-0.7271,-0.7284,-0.7295,-0.7333,-0.7347,-0.7178,-0.7178,-0.7179,0,-0.6918,-0.6968,-0.6941,-0.6982,-0.6996,-0.6951,-0.7002,-0.7011,-0.703,-0.7041,-0.7012,-0.7075,-0.7081,-0.7148,-0.7174,-0.7186,-0.7198,-0.7169,-0.7284,-0.7295,-0.7305,-0.7341,-0.7355,-0.7183,-0.7182,-0.7182,-0.7182,0,-0.7043,-0.7078,-0.7118,-0.7134,-0.7152,-0.7199,-0.7179,-0.7201,-0.7181,-0.7173,-0.7226,-0.7231,-0.7257,-0.7272,-0.7254,-0.7336,-0.732,-0.7288,-0.7237,-0.7326,-0.7358,-0.7372,-0.7189,-0.7188,-0.7186,-0.7185,0,0,-0.7202,-0.72,-0.7215,-0.7221,-0.7226,-0.7253,-0.7297,-0.732,-0.7338,-0.7352,-0.7388,-0.7432,-0.7401,-0.7415,-0.7397,-0.743,-0.7514,-0.7394,-0.7394,-0.7415,-0.7602,-0.7626,-0.7642,-0.7495,-0.7497,-0.7499,-0.7601,0,-0.7309,-0.7382,-0.7358,-0.7432,-0.7463,-0.7419,-0.7457,-0.7464,-0.7458,-0.7483,-0.7476,-0.7507,-0.7465,-0.7472,-0.7503,-0.7497,-0.7551,-0.749,-0.7528,-0.753,-0.7526,-0.766,-0.7685,-0.7781,-0.7614,-0.7616,-0.7617,0,-0.7445,-0.746,-0.7537,-0.7534,-0.7546,-0.758,-0.7598,-0.7623,-0.763,-0.7623,-0.7636,-0.761,-0.7653,-0.7601,-0.7658,-0.7617,-0.7631,-0.763,-0.7633,-0.7636,-0.7579,-0.7666,-0.7811,-0.7825,-0.7638,-0.7636,-0.7635,0,-0.7552,-0.7592,-0.7642,-0.7649,-0.7647,-0.7671,-0.7672,-0.7675,-0.769,-0.7706,-0.7715,-0.7737,-0.7749,-0.7766,-0.7747,-0.7712,-0.7807,-0.7754,-0.7802,-0.7802,-0.7824,-0.7823,-0.7974,-0.7834,-0.7834,-0.7834,-0.7833,0,-0.7674,-0.7722,-0.769,-0.7721,-0.7773,-0.7744,-0.7797,-0.7793,-0.7796,-0.7825,-0.7789,-0.7818,-0.7791,-0.7817,-0.7802,-0.7851,-0.7857,-0.7852,-0.7847,-0.7855,-0.7855,-0.7864,-0.7856,-0.7837,-0.7837,-0.7836,-0.7835,0,-0.7803,-0.7783,-0.7834,-0.7827,-0.7826,-0.7864,-0.7858,-0.7886,-0.7875,-0.7913,-0.792,-0.7903,-0.7932,-0.7914,-0.7944,-0.7933,-0.7996,-0.7983,-0.7994,-0.799,-0.8038,-0.8033,-0.8199,-0.8218,-0.8067,-0.8068,-0.807,0,-0.7882,-0.7917,-0.7912,-0.7928,-0.793,-0.7956,-0.797,-0.7942,-0.7958,-0.7966,-0.7993,-0.8018,-0.8036,-0.8084,-0.8075,-0.8096,-0.8083,-0.8139,-0.8086,-0.8092,-0.8082,-0.808,-0.8083,-0.815,-0.8152,-0.8154,-0.8155,0,-0.8024,-0.8011,-0.8031,-0.8047,-0.8063,-0.8075,-0.8085,-0.81,-0.8072,-0.8091,-0.8118,-0.8132,-0.816,-0.8185,-0.8202,-0.8203,-0.8175,-0.8171,-0.8183,-0.8191,-0.8195,-0.8192,-0.8022,-0.8168,-0.8167,-0.8166,-0.8165,-0.8164,-0.813,-0.8158,-0.8157,-0.818,-0.8183,-0.8191,-0.8216,-0.8207,-0.8228,-0.8247,-0.823,-0.8262,-0.8265,-0.8285,-0.8289,-0.8314,-0.8291,-0.8309,-0.8314,-0.8318,-0.8324,-0.8191,-0.8318,-0.8317,-0.8317,-0.8317,-0.8316,0,-0.8269,-0.8265,-0.8286,-0.8298,-0.8315,-0.8284,-0.8291,-0.8308,-0.8336,-0.8341,-0.8358,-0.8388,-0.8411,-0.8402,-0.8422,-0.8443,-0.8431,-0.845,-0.8448,-0.8448,-0.8344,-0.8331,-0.8459,-0.8459,-0.8459,-0.8459,-0.8459,-0.8459,-0.8343,-0.8388,-0.8375,-0.8421,-0.8417,-0.8446,-0.8453,-0.846,-0.8463,-0.8497,-0.8515,-0.8508,-0.8507,-0.8526,-0.8545,-0.8542,-0.8551,-0.8574,-0.8567,-0.847,-0.8456,-0.8442,-0.843,-0.8577,-0.8577,-0.8668,-0.8669,-0.8669]},{"header":{"parameterUnit":"m.s-1","parameterCategory":1,"la1":30.2991,"la2":30.254,"lo1":-89.0895,"lo2":-89.0444,"dy":0.0017,"dx":0.0017,"nx":28,"ny":28,"refTime":"2025-03-20T21:00:00:Z","depth":0,"parameterNumber":3,"parameterNumberName":"V-component_of_WINDS"},"data":[0,0,0,0,0,0,0,0,0,0,0,0,0,0,0,0,0,0,0,0,0,0,0,0,0,0,0,0,0,0,0,0,0,0,0,0,0,0,0,0,0,0,0,0,0,0,0,0,0,0,0,0,0,0,0,0,0,0,-4.3759,-4.3761,0,-4.3907,-4.3909,-4.3911,-4.3839,-4.3835,-4.3831,-4.3828,-4.3977,-4.3984,-4.3991,0,0,0,0,0,0,0,0,0,0,0,0,0,-4.341,-4.3417,-4.3759,-4.3761,-4.3763,-4.3907,-4.3909,-4.3911,-4.384,-4.3835,-4.3831,-4.3826,-4.3974,-4.3983,-4.3992,0,0,0,0,0,0,0,0,0,0,0,0,0,-4.3561,-4.3419,-4.3759,-4.3745,-4.3745,-4.3907,-4.3909,-4.3912,-4.3841,-4.3835,-4.3829,-4.3824,-4.3971,-4.3982,-4.3993,-4.4177,0,0,-4.4028,-4.4033,0,0,0,0,0,0,0,0,-4.3552,-4.3573,-4.3745,-4.3746,-4.3746,-4.3849,-4.3841,-4.4,-4.3842,-4.3804,-4.3828,-4.3821,-4.3939,-4.3952,-4.3992,-4.4184,-4.419,-4.4029,-4.4035,-4.404,-4.4043,0,0,0,0,0,0,0,-4.3542,-4.3567,-4.3817,-4.3747,-4.3748,-4.373,-4.3745,-4.3871,-4.3901,-4.3807,-4.3802,-4.3821,-4.3938,-4.3982,-4.3995,-4.4192,-4.4028,-4.4038,-4.4045,-4.405,-4.4539,-4.4545,0,0,0,0,0,0,-4.3532,-4.3558,-4.3813,-4.3822,-4.3633,-4.3741,-4.3757,-4.3822,-4.39,-4.3906,-4.3826,-4.3817,-4.3965,-4.3982,-4.4,-4.4219,-4.404,-4.4051,-4.4057,-4.4533,-4.4541,-4.4547,0,0,0,0,0,0,-4.3525,-4.3556,-4.3807,-4.3689,-4.372,-4.3753,-4.3825,-4.3828,-4.3871,-4.3914,-4.3919,-4.3865,-4.3961,-4.3984,-4.4133,-4.4223,-4.4056,-4.4066,-4.4526,-4.4535,-4.4544,-4.4659,0,0,0,0,0,0,-4.3515,-4.3554,-4.3625,-4.3691,-4.3726,-4.3939,-4.3831,-4.3835,-4.3891,-4.3882,-4.3952,-4.3958,-4.3959,-4.4117,-4.4144,-4.4236,-4.4075,-4.4518,-4.453,-4.4541,-4.4647,-4.4671,-4.4691,0,0,0,0,0,-4.3503,-4.3651,-4.3629,-4.366,-4.3816,-4.3944,-4.3964,-4.3962,-4.3899,-4.397,-4.3997,-4.3956,-4.4209,-4.4133,-4.4163,-4.4259,-4.4512,-4.4527,-4.454,-4.4637,-4.4666,-4.4691,0,0,0,0,0,0,-4.3593,-4.3659,-4.3635,-4.3809,-4.3872,-4.3932,-4.4021,-4.3993,-4.4075,-4.4062,-4.4055,-4.4072,-4.4226,-4.4257,-4.4171,-4.444,-4.4351,-4.4371,-4.4414,-4.4442,-4.4464,-4.4453,-4.4084,0,0,0,0,0,-4.3633,-4.3733,-4.3785,-4.3933,-4.3966,-4.3989,-4.4044,-4.4038,-4.4102,-4.4128,-4.4166,-4.4229,-4.4322,-4.4383,-4.4472,-4.4651,-4.4665,-4.4732,-4.4754,-4.4772,-4.479,-4.4886,-4.4916,-4.4594,-4.4594,-4.4593,0,0,-4.3717,-4.3765,-4.3829,-4.3952,-4.4,-4.4102,-4.4011,-4.4124,-4.4199,-4.4144,-4.4287,-4.4317,-4.4387,-4.4551,-4.4626,-4.4582,-4.4882,-4.479,-4.4804,-4.4813,-4.4904,-4.4934,-4.4961,-4.4603,-4.4602,-4.46,0,0,-4.3922,-4.3969,-4.4097,-4.4147,-4.422,-4.4234,-4.4265,-4.433,-4.4348,-4.4491,-4.4452,-4.4541,-4.4702,-4.4753,-4.48,-4.5023,-4.4988,-4.5052,-4.5168,-4.5261,-4.5287,-4.5309,-4.5388,-4.5416,-4.507,-4.507,-4.5071,0,-4.4016,-4.417,-4.4166,-4.4282,-4.4337,-4.4292,-4.4421,-4.4469,-4.4568,-4.4606,-4.4556,-4.4757,-4.4801,-4.4976,-4.5031,-4.507,-4.5104,-4.5044,-4.5284,-4.5306,-4.5327,-4.5402,-4.5432,-4.5078,-4.5077,-4.5076,-4.5075,0,-4.4282,-4.4389,-4.4483,-4.458,-4.4646,-4.4768,-4.4781,-4.4847,-4.4835,-4.4853,-4.4999,-4.505,-4.5147,-4.5188,-4.5177,-4.5362,-4.5333,-4.5284,-4.5194,-4.5365,-4.5435,-4.5464,-4.5088,-4.5085,-4.5083,-4.5081,0,0,-4.4548,-4.4641,-4.4675,-4.4718,-4.4796,-4.4878,-4.4997,-4.5093,-4.515,-4.5219,-4.5317,-4.5455,-4.5409,-4.5463,-4.5456,-4.5539,-4.5711,-4.5479,-4.548,-4.552,-4.5916,-4.5953,-4.5986,-4.5688,-4.5693,-4.5698,-4.591,0,-4.4757,-4.4967,-4.4966,-4.5159,-4.5257,-4.5216,-4.5319,-4.5377,-4.5398,-4.5483,-4.5505,-4.5602,-4.5536,-4.5567,-4.5647,-4.5673,-4.579,-4.5658,-4.5778,-4.5783,-4.5762,-4.6023,-4.6062,-4.626,-4.5938,-4.5942,-4.5946,0,-4.503,-4.5109,-4.5312,-4.5374,-4.5415,-4.5508,-4.5596,-4.5678,-4.5742,-4.5751,-4.5811,-4.5792,-4.5911,-4.5818,-4.5981,-4.5891,-4.594,-4.5961,-4.5968,-4.5979,-4.5875,-4.604,-4.6323,-4.6353,-4.5989,-4.5986,-4.5983,0,-4.5203,-4.5359,-4.5501,-4.5539,-4.5615,-4.5682,-4.5716,-4.5775,-4.5832,-4.5908,-4.5945,-4.6034,-4.6082,-4.6151,-4.6155,-4.6087,-4.632,-4.6227,-4.633,-4.633,-4.638,-4.6377,-4.6675,-4.6413,-4.6413,-4.6412,-4.6412,0,-4.5437,-4.5562,-4.5579,-4.5666,-4.5805,-4.5802,-4.594,-4.5968,-4.6021,-4.6111,-4.6081,-4.6166,-4.6167,-4.6254,-4.6258,-4.6393,-4.6415,-4.6424,-4.6424,-4.6427,-4.6426,-4.6459,-4.6445,-4.642,-4.6418,-4.6417,-4.6415,0,-4.5653,-4.567,-4.5821,-4.5881,-4.5899,-4.5999,-4.6049,-4.6131,-4.6148,-4.6263,-4.629,-4.6317,-4.6418,-4.6429,-4.6546,-4.6549,-4.6711,-4.6696,-4.6689,-4.6687,-4.6788,-4.6778,-4.7117,-4.7161,-4.6871,-4.6874,-4.6876,0,-4.5801,-4.5897,-4.5967,-4.6026,-4.6065,-4.616,-4.6219,-4.6219,-4.6281,-4.6361,-4.6434,-4.6531,-4.6609,-4.6772,-4.6801,-4.689,-4.6876,-4.6989,-4.689,-4.6889,-4.6877,-4.6871,-4.688,-4.7008,-4.7011,-4.7014,-4.7016,0,-4.6062,-4.6065,-4.6151,-4.6241,-4.6312,-4.6382,-4.6447,-4.6497,-4.6505,-4.6576,-4.6679,-4.674,-4.686,-4.6957,-4.7044,-4.7078,-4.7049,-4.7047,-4.7075,-4.708,-4.7072,-4.7077,-4.6741,-4.7039,-4.7037,-4.7035,-4.7034,-4.7033,-4.6248,-4.6331,-4.6393,-4.649,-4.654,-4.6601,-4.6681,-4.6709,-4.6795,-4.6893,-4.6888,-4.7001,-4.7061,-4.7176,-4.7216,-4.7304,-4.7266,-4.7307,-4.7318,-4.7328,-4.7338,-4.7058,-4.732,-4.7319,-4.7318,-4.7318,-4.7317,0,-4.6507,-4.6545,-4.6634,-4.6727,-4.6803,-4.6769,-4.684,-4.6905,-4.7005,-4.7065,-4.7142,-4.726,-4.7353,-4.739,-4.7481,-4.7544,-4.7533,-4.7568,-4.7563,-4.7571,-4.7366,-4.7333,-4.7576,-4.7575,-4.7575,-4.7575,-4.7575,-4.7575,-4.665,-4.6788,-4.6799,-4.696,-4.6997,-4.7109,-4.7152,-4.7208,-4.7255,-4.7388,-4.7466,-4.749,-4.7539,-4.7634,-4.7718,-4.7726,-4.776,-4.7802,-4.7804,-4.7612,-4.7586,-4.7561,-4.7529,-4.7809,-4.781,-4.8001,-4.8003,-4.8004]}]]